Hourly Data Report for September 01, 2017

All times are specified in Local Standard Time (LST). Add 1 hour to adjust for Daylight Saving Time where and when it is observed.

SANDY LAKE A
ONTARIO

53°03'51.000" N
93°20'40.000" W
289.90 m
6017401
71587
ZSJ

Download Data

Hourly Data (September 2017)
Hourly Data Report for September 1, 2017
Temp Definition
°C
Dew Point Temp Definition
°C
Rel Hum Definition
%
Wind Dir Definition
10's deg

Wind Spd Definition
km/h
Visibility Definition
km
Stn Press Definition
kPa
Hmdx Definition


Wind Chill Definition


Weather Definition


TIME
00:00 Legend Double Dagger 17.9 12.0 68 LegendMM LegendMM 16.1 97.94     LegendNANA
01:00 Legend Double Dagger 17.9 11.5 66 LegendMM LegendMM 16.1 97.91     LegendNANA
02:00 Legend Double Dagger 18.0 11.4 65 LegendMM LegendMM 16.1 97.82     LegendNANA
03:00 Legend Double Dagger 17.6 11.3 66 LegendMM LegendMM 16.1 97.78     LegendNANA
04:00 Legend Double Dagger 17.3 11.6 69 LegendMM LegendMM 16.1 97.72     LegendNANA
05:00 Legend Double Dagger 16.8 11.4 70 LegendMM LegendMM 16.1 97.66     LegendNANA
06:00 Legend Double Dagger 16.1 11.5 74 LegendMM LegendMM 16.1 97.61     LegendNANA
07:00 Legend Double Dagger 16.4 11.8 74 LegendMM LegendMM 16.1 97.58     LegendNANA
08:00 Legend Double Dagger 16.6 12.2 75 LegendMM LegendMM 16.1 97.48     LegendNANA
09:00 Legend Double Dagger 17.8 13.0 73 LegendMM LegendMM 16.1 97.39     LegendNANA
10:00 Legend Double Dagger 18.6 13.6 73 LegendMM LegendMM 16.1 97.38     LegendNANA
11:00 Legend Double Dagger 19.6 14.1 70 LegendMM LegendMM 16.1 97.31     LegendNANA
12:00 Legend Double Dagger 19.8 14.7 72 LegendMM LegendMM 16.1 97.28     LegendNANA
13:00 Legend Double Dagger 19.5 14.8 74 LegendMM LegendMM 16.1 97.25     LegendNANA
14:00 Legend Double Dagger 17.8 15.1 84 LegendMM LegendMM 8.1 97.23     Heavy Rain
15:00 Legend Double Dagger 15.3 14.1 93 LegendMM LegendMM 4.8 97.26     Rain,Fog
16:00 Legend Double Dagger 14.7 14.1 96 LegendMM LegendMM 3.2 97.25     Heavy Rain,Fog
17:00 Legend Double Dagger 14.6 13.8 95 LegendMM LegendMM 4.8 97.20     Moderate Rain,Fog
18:00 Legend Double Dagger LegendMM LegendMM 96 LegendMM LegendMM 4.8 LegendMM     Moderate Rain
19:00 Legend Double Dagger 14.6 13.8 95 LegendMM LegendMM 16.1 97.18     LegendNANA
20:00 Legend Double Dagger 14.2 13.6 96 LegendMM LegendMM 16.1 97.18     LegendNANA
21:00 Legend Double Dagger 13.4 12.9 97 LegendMM LegendMM 14.5 97.24     LegendNANA
22:00 Legend Double Dagger 13.5 13.0 97 LegendMM LegendMM 16.1 97.23     LegendNANA
23:00 Legend Double Dagger 13.7 13.2 97 LegendMM LegendMM 12.9 97.20     LegendNANA

Notes on Data Quality.

Legend

  • E = Estimated
  • M = Missing
  • NA = Not Available
  • ‡ = Partner data that is not subject to review by the National Climate Archives
Date modified: